Regional Weather Roundup
Issued by NWS Kansas City/Pleasant Hill, MO

Home | Current Version | Previous Version | Graphics & Text | Print | Product List | Glossary Off
Versions: 1 2 3 4 5 6 7 8 9 10 11 12 13 14 15 16 17 18 19 20 21 22 23 24 25 26 27 28 29 30 31 32 33 34 35 36 37 38 39 40 41 42 43 44 45 46 47 48 49 50

000
ASUS43 KEAX 180704
RWREAX

WEATHER ROUNDUP FOR EASTERN KANSAS AND NORTHWEST MISSOURI
NATIONAL WEATHER SERVICE KANSAS CITY/PLEASANT HILL MO
200 AM CDT SAT APR 18 2015

KSZ040-057-103>105-MOZ028-029-037-043-180800-
...KANSAS CITY METROPOLITAN AREA...

CITY           SKY/WX    TMP DP  RH WIND       PRES   REMARKS
K.C. INTL      CLOUDY    64  57  78 E9        29.96F
K.C. DOWNTOWN  CLOUDY    65  57  75 NE5       29.94F
LEES SUMMIT    CLOUDY    63  57  81 NE6       29.96F
OLATHE - IXD   CLOUDY    64  58  80 E5        29.97S
OLATHE - OJC   CLOUDY    63  59  87 E5        29.95F
LAWRENCE       CLOUDY    58  55  90 CALM      29.96F

$$

MOZ001>008-011>017-020>025-030>033-038>040-044>046-053-054-180800-
...NORTHERN AND CENTRAL MISSOURI...

CITY           SKY/WX    TMP DP  RH WIND       PRES   REMARKS
ST. JOSEPH     CLOUDY    64  56  75 SE3       29.96F
MOSBY          CLOUDY    66  55  68 E3        29.97S
WARRENSBURG    CLOUDY    63  55  77 N3        29.96S
WHITEMAN AFB   CLOUDY    64  56  73 E3        29.95F
CLINTON        CLOUDY    63  61  94 MISG      29.96F
SEDALIA        CLOUDY    64  55  72 SE5       29.97F
WARSAW         NOT AVBL
MARSHALL       CLOUDY    66  57  72 E7        29.97F
CHILLICOTHE      N/A     61  59  93 E5        30.00F
MOBERLY        CLOUDY    66  54  63 SE7       30.00F
KIRKSVILLE     CLOUDY    61  55  81 E5        30.01S

$$

MOZ041-047>049-056>058-063>065-088>090-097-180800-
...EASTERN AND SOUTHERN MISSOURI...

CITY           SKY/WX    TMP DP  RH WIND       PRES   REMARKS
ST. LOUIS INTL PTCLDY    68  55  63 S3        30.01F
SPIRIT OF STL  PTCLDY    58  56  93 CALM      30.00F
COLUMBIA       MOCLDY    66  56  70 SE7       29.99S
JEFFERSON CITY CLOUDY    65  57  75 SE8       29.98F
MEXICO         MOCLDY    64  59  82 E6        30.01S
HANNIBAL       PTCLDY    64  52  63 SE5       30.02S
ROLLA            N/A     63  56  78 S9        30.00F
LEBANON        CLOUDY    64  59  82 S7        30.00F
OSAGE BEACH    CLOUDY    64  54  68 SE7       29.99S
SPRINGFIELD    CLOUDY    64  59  83 S10       29.98F
BRANSON        MOCLDY    61  59  94 CALM      30.01F
NEVADA         CLOUDY    63  59  88 SE7       29.97S
JOPLIN         CLOUDY    62  59  90 S7        29.96F
WEST PLAINS    MOCLDY    61  59  93 CALM      30.02F FOG

$$

IAZ060-094-KSZ022-034>040-054-083-096-NEZ052-066-093-180800-
...KANSAS...SOUTHEAST NEBRASKA AND IOWA...

CITY           SKY/WX    TMP DP  RH WIND       PRES   REMARKS
TOPEKA         CLOUDY    60  57  89 CALM      29.96S
MANHATTAN      CLOUDY    60  57  89 CALM      29.94F
EMPORIA        CLOUDY    60  58  92 S3        29.95F
CHANUTE        CLOUDY    62  61  96 S5        29.95F
WICHITA        CLOUDY    63  59  87 CALM      29.93F
OMAHA          CLOUDY    67  54  63 SE8       29.97S
LINCOLN        CLOUDY    63  55  75 CALM      29.97S
FALLS CITY     CLOUDY    60  55  83 E3        29.95F
LAMONI         CLOUDY    66  53  63 SE5       29.99F
DES MOINES     LGT RAIN  66  54  65 SW7       30.00S

$$



USA.gov is the U.S. government's official web portal to all federal, state and local government web resources and services.